Regional Weather Roundup
Issued by NWS

Home | Current Version | Previous Version | Graphics & Text | Print | Product List | Glossary On
Versions: 1 2 3 4 5 6 7 8 9 10 11 12 13 14 15 16 17 18 19 20 21 22 23 24 25 26 27
000
ASUS45 KBOU 252007
RWRCO

WEATHER ROUNDUP FOR COLORADO
NATIONAL WEATHER SERVICE DENVER/BOULDER CO
200 PM MDT TUE JUL 25 2017

NOTE: "FAIR" INDICATES FEW OR NO CLOUDS BELOW 12000 FEET WITH NO
SIGNIFICANT WEATHER AND/OR OBSTRUCTIONS TO VISIBILITY.

COZ001>005-013-030-031-252100-
...NORTHWEST COLORADO...

CITY           SKY/WX    TMP DP  RH WIND       PRES   REMARKS
CRAIG          LGT RAIN  72  55  55 W5        30.24S
HAYDEN         PTSUNNY   72  50  46 N8        30.25F
MEEKER         LGT RAIN  71  61  70 N5        30.24F
RABBIT EARS PA CLOUDY    55  52  88 SW5       30.55S
STEAMBOAT SPGS CLOUDY    72  52  48 CALM      30.28R
WALDEN         CLOUDY    70  45  40 W6        30.36S
$$

COZ006>008-011-252100-
...WEST CENTRAL VALLEYS...

CITY           SKY/WX    TMP DP  RH WIND       PRES   REMARKS
GRAND JUNCTION PTSUNNY   76  63  64 W9        30.14F
MONTROSE       PTSUNNY   78  59  51 CALM      30.20F
EAGLE          PTSUNNY  N/A N/A N/A SE3         N/A
RIFLE          FAIR      78  56  46 N5        30.19F
DELTA          PTSUNNY   84  53  34 CALM      30.15F
NUCLA          PTSUNNY   79  52  38 SW10G16   30.23F THUNDER
$$

COZ017>023-064>068-252100-
...SOUTHWEST COLORADO...

CITY           SKY/WX    TMP DP  RH WIND       PRES   REMARKS
DURANGO        PTSUNNY   77  53  43 VRB6      30.28F
CORTEZ         FAIR      80  58  46 S6        30.21F
PAGOSA SPRINGS FAIR      76  49  38 SW6       30.36F
TELLURIDE      LGT RAIN  64  56  73 SE10      30.46F
WOLF CREEK PAS LGT RAIN  50  50 100 S13G21    30.71F VSB 3/4
$$

COZ009-010-012-014-032>034-037-058>063-252100-
...CENTRAL COLORADO...

CITY           SKY/WX    TMP DP  RH WIND       PRES   REMARKS
ASPEN          PTSUNNY   76  50  40 N5        30.30F
BUENA VISTA    PTSUNNY   76  47  36 SE16      30.31F
COPPER MTN     CLOUDY    61  48  63 W3        30.66F
BERTHOUD PASS  CLOUDY    52  37  58 NW5       30.69S
COTTONWOOD PAS PTSUNNY   73  45  35 SE5       30.47F
GUNNISON       FAIR      74  54  49 SW7       30.31F
KREMMLING      FAIR      86  46  25 W9        30.30F
LEADVILLE      CLOUDY    67  45  45 N6        30.46F
MONARCH PASS   PTSUNNY   57  46  67 SW13G20   30.75F THUNDER
SALIDA         CLOUDY    71  56  57 E7        30.35F
SUNLIGHT       DRIZZLE   55  50  82 SW8       30.58F
WILKERSON PASS FAIR      68  43  40 SW7G16    30.62S
$$

COZ069>075-252100-
...SAN LUIS VALLEY/SANGRE DE CRISTO MOUNTAINS...

CITY           SKY/WX    TMP DP  RH WIND       PRES   REMARKS
ALAMOSA        FAIR      78  53  41 S6        30.30F
DEL NORTE      PTSUNNY   76  54  47 S8        30.34F
LA VETA PASS   NOT AVBL
SAGUACHE         N/A    N/A N/A N/A MISG        N/A
$$

COZ035-036-038>040-252100-
...NORTHERN COLORADO FRONT RANGE...

CITY           SKY/WX    TMP DP  RH WIND       PRES   REMARKS
DENVER INTL AP PTSUNNY   95  47  19 VRB5      30.08S
DMNS CITY PARK   N/A     91  46  21 N13       30.06F
AURORA         PTSUNNY   88  50  26 S6        30.10F
FRONT RANGE AP FAIR      91  45  19 W7        30.10S
ERIE MUNI ARPT FAIR      92  43  18 W13G18    30.06S
BOULDER MUN AP FAIR      90  45  20 SW3       30.06F
CENTENNIAL     PTSUNNY   87  46  24 W8        30.12F
BROOMFIELD     FAIR      91  45  19 W12       30.10S
FORT COLLINS   FAIR      88  47  24 W6        30.07S
LONGMONT       FAIR      94  51  23 N7        30.07S
$$

COZ041-046-047-076>085-087-088-252100-
...PIKES PEAK/PALMER DIVIDE AND SOUTHERN FOOTHILLS...

CITY           SKY/WX    TMP DP  RH WIND       PRES   REMARKS
COLO. SPRINGS  PTSUNNY   90  52  27 S8        30.15F
A. F. ACADEMY  PTSUNNY   85  49  29 SW3       30.17F
SCHRIEVER AFB  FAIR      87  47  24 SW13G24   30.17F
CHEYENNE MTN   PTSUNNY   82  47  29 N6        30.17S
ELLICOTT       NOT AVBL
FALCON           N/A     84  47  27 SE3G18    30.23F
FORT CARSON    FAIR      89  49  24 S20G25    30.11F
LIMON          FAIR      91  51  25 MISG      30.09F
MONUMENT HILL  FAIR      79  50  36 NW6       30.25F
CANON CITY     MOSUNNY   93  55  27 SW3       30.09F
WALSENBURG     FAIR      93  48  21 CALM      30.14F
TRINIDAD       PTSUNNY   86  49  27 W8        30.14F
$$

COZ042>045-048>051-090-091-252100-
...NORTHEAST COLORADO...

CITY           SKY/WX    TMP DP  RH WIND       PRES   REMARKS
GREELEY ARPT   FAIR      90  53  28 NW5       30.04S
AKRON          FAIR      97  45  16 W15G24    30.01S
BURLINGTON     FAIR      97  58  27 S20G26    30.02F
WRAY           NOT AVBL
YUMA           FAIR      95  34  11 S10G18    29.97F
STERLING       FAIR      97  55  24 SW9       29.95S
HOLYOKE        FAIR      99  63  30 S14       29.95F
FORT MORGAN    FAIR      92  46  20 SW8       30.02S
$$

COZ086-089-092>099-252100-
...SOUTHEAST COLORADO...

CITY           SKY/WX    TMP DP  RH WIND       PRES   REMARKS
PUEBLO         FAIR      97  49  19 VRB6      30.02F
LA JUNTA       FAIR      97  52  21 E5        30.00F
LAMAR          FAIR      99  56  23 SW8       29.94F
SPRINGFIELD      N/A     95  59  30 S23G31    30.04F
$$




USA.gov is the U.S. government's official web portal to all federal, state and local government web resources and services.